Вернуться в каталог

HAIYANG 1

АктивенНаукаSSO
NORAD 27430·PAYLOAD·🇨🇳 China

Запущен May 15, 2002 с Taiyuan Satellite Launch Center

Loading…

Ближайшие Пролёты (ближайшие 24 часа)

TLE

СвежийSource: Space-Track

Эпоха: Sep 14, 2026, 07:30 UTC

1 27430U 02024A   26257.31287902  .00000195  00000-0  87361-4 0  9992
2 27430  98.7397 220.1138 0008726 168.3480 191.7907 14.33193468270590

Отслеживайте HAIYANG 1 в реальном времени с AllMySat

Download on the App Store